[[{"header":{"parameterUnit":"m.s-1","parameterCategory":1,"la1":30.2991,"la2":30.254,"lo1":-89.0895,"lo2":-89.0444,"dy":0.0017,"dx":0.0017,"nx":28,"ny":28,"refTime":"2024-10-03T03:00:00:Z","depth":0,"parameterNumber":2,"parameterNumberName":"U-component_of_WINDS"},"data":[0,0,0,0,0,0,0,0,0,0,0,0,0,0,0,0,0,0,0,0,0,0,0,0,0,0,0,0,0,0,0,0,0,0,0,0,0,0,0,0,0,0,0,0,0,0,0,0,0,0,0,0,0,0,0,0,0,0,-0.0307,-0.0306,0,-0.0265,-0.0265,-0.0264,-0.0212,-0.0211,-0.021,-0.0209,-0.017,-0.017,-0.017,0,0,0,0,0,0,0,0,0,0,0,0,0,-0.0344,-0.0343,-0.0307,-0.0306,-0.0306,-0.0265,-0.0265,-0.0264,-0.0212,-0.0211,-0.021,-0.0209,-0.017,-0.017,-0.017,0,0,0,0,0,0,0,0,0,0,0,0,0,-0.0318,-0.0343,-0.0307,-0.0274,-0.0271,-0.0265,-0.0265,-0.0264,-0.0212,-0.0211,-0.0209,-0.0208,-0.017,-0.017,-0.017,-0.0194,0,0,-0.0169,-0.0169,0,0,0,0,0,0,0,0,-0.0319,-0.0317,-0.028,-0.0277,-0.0273,-0.0242,-0.0264,-0.0241,-0.0212,-0.0235,-0.0209,-0.0208,-0.0196,-0.0193,-0.0188,-0.0192,-0.019,-0.0169,-0.0169,-0.0168,-0.0168,0,0,0,0,0,0,0,-0.0321,-0.0318,-0.029,-0.0279,-0.0275,-0.0263,-0.0258,-0.0259,-0.0223,-0.0232,-0.0229,-0.0224,-0.0193,-0.0189,-0.0187,-0.019,-0.0169,-0.0168,-0.0168,-0.0168,-0.0213,-0.0214,0,0,0,0,0,0,-0.0327,-0.032,-0.0292,-0.0289,-0.0293,-0.0264,-0.0258,-0.0253,-0.0223,-0.0217,-0.0225,-0.0222,-0.019,-0.0187,-0.0185,-0.0213,-0.0168,-0.0168,-0.0168,-0.0211,-0.0213,-0.0214,0,0,0,0,0,0,-0.0328,-0.0325,-0.0293,-0.0303,-0.0298,-0.0264,-0.026,-0.0253,-0.0248,-0.0217,-0.0211,-0.0227,-0.0189,-0.0186,-0.0192,-0.0211,-0.0168,-0.0168,-0.021,-0.0212,-0.0214,-0.0267,0,0,0,0,0,0,-0.033,-0.0326,-0.0334,-0.0304,-0.0298,-0.03,-0.0261,-0.0253,-0.0248,-0.0243,-0.0217,-0.0212,-0.0188,-0.0193,-0.0192,-0.0209,-0.0167,-0.0208,-0.0211,-0.0213,-0.0264,-0.0271,-0.0277,0,0,0,0,0,-0.0331,-0.0351,-0.0334,-0.0331,-0.0307,-0.0301,-0.0298,-0.0269,-0.0249,-0.0258,-0.0238,-0.0212,-0.0208,-0.0194,-0.0192,-0.021,-0.0207,-0.021,-0.0213,-0.0261,-0.0269,-0.0277,0,0,0,0,0,0,-0.0385,-0.0346,-0.0328,-0.0338,-0.0323,-0.0292,-0.0301,-0.0278,-0.027,-0.0266,-0.0231,-0.0226,-0.0237,-0.0224,-0.0208,-0.0232,-0.0204,-0.0207,-0.0241,-0.0249,-0.0255,-0.0259,-0.0167,0,0,0,0,0,-0.0397,-0.0395,-0.0361,-0.0374,-0.0367,-0.0336,-0.0332,-0.0311,-0.0295,-0.0288,-0.0269,-0.0255,-0.0251,-0.0249,-0.0243,-0.0261,-0.0256,-0.0272,-0.0279,-0.0285,-0.0288,-0.0299,-0.0306,-0.0225,-0.0225,-0.0225,0,0,-0.0424,-0.0403,-0.0403,-0.0384,-0.037,-0.037,-0.0331,-0.0332,-0.0331,-0.0289,-0.0294,-0.0279,-0.0261,-0.0274,-0.0279,-0.0264,-0.0309,-0.0289,-0.0293,-0.0294,-0.0303,-0.0311,-0.0318,-0.0227,-0.0226,-0.0226,0,0,-0.0473,-0.0456,-0.0465,-0.0452,-0.0431,-0.041,-0.0412,-0.0384,-0.0373,-0.0377,-0.0346,-0.0345,-0.0338,-0.0327,-0.0321,-0.0367,-0.0344,-0.0366,-0.0401,-0.0412,-0.0419,-0.0424,-0.0443,-0.0449,-0.0369,-0.0369,-0.0369,0,-0.051,-0.0506,-0.0473,-0.0476,-0.0469,-0.043,-0.044,-0.0429,-0.0408,-0.0405,-0.0387,-0.0379,-0.0364,-0.0374,-0.0386,-0.0381,-0.0384,-0.0369,-0.042,-0.0425,-0.043,-0.0447,-0.0454,-0.0372,-0.0372,-0.0371,-0.0371,0,-0.0553,-0.0552,-0.0562,-0.0542,-0.0536,-0.0542,-0.0512,-0.051,-0.049,-0.0471,-0.0477,-0.0457,-0.0448,-0.0448,-0.0428,-0.0457,-0.0448,-0.0426,-0.0397,-0.0441,-0.0457,-0.0463,-0.0376,-0.0375,-0.0374,-0.0374,0,0,-0.0636,-0.0597,-0.0601,-0.0593,-0.0567,-0.0565,-0.0571,-0.056,-0.0561,-0.0547,-0.0553,-0.0548,-0.0527,-0.052,-0.0499,-0.0508,-0.0548,-0.0485,-0.0484,-0.0499,-0.058,-0.0599,-0.0607,-0.0532,-0.0533,-0.0534,-0.0583,0,-0.0681,-0.0688,-0.0658,-0.0673,-0.0672,-0.0635,-0.064,-0.0625,-0.0608,-0.0606,-0.0587,-0.0585,-0.0557,-0.0553,-0.056,-0.0542,-0.0564,-0.0537,-0.0538,-0.0539,-0.0546,-0.0615,-0.0634,-0.0681,-0.0588,-0.0589,-0.059,0,-0.0736,-0.0725,-0.074,-0.0714,-0.0713,-0.0718,-0.0707,-0.0704,-0.0688,-0.0675,-0.0667,-0.0642,-0.0647,-0.0618,-0.0626,-0.0609,-0.0607,-0.0598,-0.0599,-0.06,-0.0569,-0.062,-0.0695,-0.0703,-0.0599,-0.0598,-0.0598,0,-0.0797,-0.0786,-0.0794,-0.0787,-0.0757,-0.0762,-0.075,-0.0731,-0.0728,-0.0718,-0.0716,-0.0708,-0.0704,-0.0698,-0.0673,-0.0653,-0.0685,-0.0653,-0.0676,-0.0677,-0.0686,-0.0686,-0.0765,-0.0681,-0.0681,-0.0681,-0.0681,0,-0.0852,-0.0864,-0.0821,-0.0826,-0.0838,-0.0804,-0.0817,-0.0802,-0.0786,-0.0789,-0.0755,-0.0759,-0.0723,-0.0723,-0.0703,-0.0714,-0.0712,-0.0703,-0.0698,-0.0707,-0.0709,-0.0707,-0.0704,-0.0683,-0.0682,-0.0682,-0.0682,0,-0.0924,-0.0895,-0.0902,-0.0873,-0.0866,-0.0876,-0.0852,-0.0856,-0.0837,-0.084,-0.0839,-0.081,-0.0808,-0.0781,-0.0773,-0.076,-0.078,-0.0768,-0.0786,-0.0783,-0.0808,-0.0807,-0.089,-0.0901,-0.0809,-0.081,-0.0811,0,-0.0962,-0.097,-0.0941,-0.094,-0.0929,-0.0928,-0.0924,-0.0891,-0.0889,-0.0871,-0.0878,-0.0873,-0.0868,-0.0868,-0.0846,-0.0841,-0.0829,-0.0859,-0.0829,-0.0838,-0.0833,-0.0833,-0.0835,-0.0866,-0.0867,-0.0868,-0.0869,0,-0.1034,-0.1019,-0.1014,-0.1005,-0.1001,-0.0992,-0.0981,-0.0982,-0.0946,-0.0945,-0.0943,-0.0939,-0.0931,-0.0928,-0.0919,-0.0908,-0.0884,-0.0878,-0.0884,-0.0895,-0.0906,-0.0903,-0.0806,-0.0877,-0.0876,-0.0876,-0.0875,-0.0875,-0.1091,-0.1097,-0.1078,-0.1074,-0.1062,-0.1053,-0.1056,-0.1037,-0.1034,-0.1025,-0.1006,-0.1007,-0.0991,-0.0976,-0.0967,-0.0969,-0.0954,-0.0961,-0.0964,-0.0967,-0.0973,-0.0904,-0.0967,-0.0966,-0.0966,-0.0966,-0.0966,0,-0.1163,-0.1149,-0.1145,-0.1131,-0.1128,-0.1104,-0.1091,-0.1091,-0.1092,-0.1079,-0.1074,-0.1072,-0.1069,-0.1047,-0.1042,-0.1047,-0.1036,-0.1047,-0.1048,-0.1046,-0.0985,-0.0982,-0.1057,-0.1057,-0.1057,-0.1056,-0.1056,-0.1056,-0.12,-0.1209,-0.1193,-0.1197,-0.1183,-0.1183,-0.1178,-0.117,-0.1159,-0.1159,-0.1155,-0.1141,-0.1125,-0.1118,-0.1115,-0.1109,-0.1109,-0.1125,-0.1115,-0.1059,-0.105,-0.1042,-0.1039,-0.1124,-0.1125,-0.1176,-0.1177,-0.1177]},{"header":{"parameterUnit":"m.s-1","parameterCategory":1,"la1":30.2991,"la2":30.254,"lo1":-89.0895,"lo2":-89.0444,"dy":0.0017,"dx":0.0017,"nx":28,"ny":28,"refTime":"2024-10-03T03:00:00:Z","depth":0,"parameterNumber":3,"parameterNumberName":"V-component_of_WINDS"},"data":[0,0,0,0,0,0,0,0,0,0,0,0,0,0,0,0,0,0,0,0,0,0,0,0,0,0,0,0,0,0,0,0,0,0,0,0,0,0,0,0,0,0,0,0,0,0,0,0,0,0,0,0,0,0,0,0,0,0,-0.1439,-0.1439,0,-0.1435,-0.1435,-0.1435,-0.1439,-0.1439,-0.1439,-0.1439,-0.1435,-0.1434,-0.1434,0,0,0,0,0,0,0,0,0,0,0,0,0,-0.1449,-0.1449,-0.1439,-0.1439,-0.1439,-0.1435,-0.1435,-0.1435,-0.1439,-0.1439,-0.1439,-0.1439,-0.1435,-0.1434,-0.1434,0,0,0,0,0,0,0,0,0,0,0,0,0,-0.1445,-0.1449,-0.1439,-0.144,-0.144,-0.1435,-0.1435,-0.1435,-0.1439,-0.1439,-0.1439,-0.1439,-0.1435,-0.1434,-0.1434,-0.1427,0,0,-0.1433,-0.1433,0,0,0,0,0,0,0,0,-0.1445,-0.1445,-0.144,-0.144,-0.144,-0.1438,-0.1437,-0.1432,-0.1439,-0.1439,-0.1439,-0.1439,-0.1435,-0.1435,-0.1434,-0.1427,-0.1427,-0.1433,-0.1433,-0.1432,-0.1432,0,0,0,0,0,0,0,-0.1445,-0.1445,-0.1437,-0.144,-0.144,-0.1441,-0.1441,-0.1436,-0.1436,-0.1439,-0.1439,-0.1439,-0.1435,-0.1434,-0.1434,-0.1426,-0.1433,-0.1432,-0.1432,-0.1432,-0.1414,-0.1414,0,0,0,0,0,0,-0.1446,-0.1445,-0.1437,-0.1437,-0.1443,-0.1441,-0.144,-0.1438,-0.1436,-0.1436,-0.1439,-0.1439,-0.1435,-0.1434,-0.1433,-0.1425,-0.1432,-0.1432,-0.1432,-0.1415,-0.1414,-0.1414,0,0,0,0,0,0,-0.1446,-0.1445,-0.1437,-0.1441,-0.144,-0.144,-0.1438,-0.1438,-0.1437,-0.1436,-0.1436,-0.1437,-0.1435,-0.1434,-0.1429,-0.1425,-0.1432,-0.1431,-0.1415,-0.1415,-0.1414,-0.1409,0,0,0,0,0,0,-0.1446,-0.1445,-0.1442,-0.1441,-0.144,-0.1433,-0.1438,-0.1438,-0.1436,-0.1436,-0.1434,-0.1434,-0.1435,-0.1429,-0.1428,-0.1425,-0.1431,-0.1415,-0.1415,-0.1414,-0.1409,-0.1409,-0.1408,0,0,0,0,0,-0.1447,-0.1441,-0.1442,-0.1441,-0.1437,-0.1432,-0.1432,-0.1433,-0.1436,-0.1433,-0.1433,-0.1434,-0.1426,-0.1429,-0.1428,-0.1424,-0.1415,-0.1415,-0.1414,-0.141,-0.1409,-0.1408,0,0,0,0,0,0,-0.1441,-0.144,-0.1442,-0.1435,-0.1434,-0.1433,-0.143,-0.1431,-0.1429,-0.1429,-0.1431,-0.143,-0.1425,-0.1424,-0.1427,-0.1418,-0.1421,-0.142,-0.1418,-0.1417,-0.1416,-0.1416,-0.1431,0,0,0,0,0,-0.1439,-0.1436,-0.1435,-0.143,-0.1429,-0.1429,-0.1428,-0.1429,-0.1427,-0.1426,-0.1426,-0.1424,-0.1421,-0.1419,-0.1416,-0.141,-0.1409,-0.1407,-0.1406,-0.1405,-0.1404,-0.1401,-0.14,-0.1412,-0.1412,-0.1412,0,0,-0.1434,-0.1434,-0.1432,-0.1429,-0.1428,-0.1424,-0.1429,-0.1425,-0.1423,-0.1426,-0.1421,-0.142,-0.1419,-0.1413,-0.141,-0.1412,-0.1401,-0.1404,-0.1404,-0.1403,-0.1401,-0.1399,-0.1398,-0.1412,-0.1412,-0.1412,0,0,-0.1425,-0.1424,-0.142,-0.1419,-0.1418,-0.1418,-0.1417,-0.1416,-0.1416,-0.1411,-0.1414,-0.1411,-0.1406,-0.1405,-0.1404,-0.1395,-0.1397,-0.1394,-0.1389,-0.1386,-0.1385,-0.1385,-0.1382,-0.1381,-0.1393,-0.1393,-0.1393,0,-0.142,-0.1415,-0.1417,-0.1413,-0.1412,-0.1415,-0.1411,-0.141,-0.1408,-0.1407,-0.1409,-0.1403,-0.1402,-0.1396,-0.1394,-0.1393,-0.1392,-0.1394,-0.1385,-0.1385,-0.1384,-0.1381,-0.138,-0.1393,-0.1393,-0.1393,-0.1393,0,-0.1409,-0.1406,-0.1402,-0.1401,-0.1399,-0.1395,-0.1396,-0.1394,-0.1396,-0.1396,-0.1392,-0.1391,-0.1388,-0.1387,-0.1388,-0.1382,-0.1383,-0.1385,-0.1389,-0.1382,-0.138,-0.1379,-0.1393,-0.1393,-0.1393,-0.1393,0,0,-0.1395,-0.1395,-0.1394,-0.1393,-0.1393,-0.139,-0.1387,-0.1385,-0.1383,-0.1382,-0.1379,-0.1375,-0.1377,-0.1376,-0.1377,-0.1375,-0.1368,-0.1377,-0.1377,-0.1376,-0.1362,-0.136,-0.1359,-0.137,-0.137,-0.137,-0.1362,0,-0.1385,-0.1379,-0.1381,-0.1375,-0.1373,-0.1376,-0.1373,-0.1373,-0.1373,-0.1371,-0.1372,-0.1369,-0.1372,-0.1372,-0.1369,-0.137,-0.1366,-0.137,-0.1367,-0.1367,-0.1367,-0.1357,-0.1355,-0.1348,-0.1361,-0.1361,-0.1361,0,-0.1373,-0.1372,-0.1366,-0.1367,-0.1366,-0.1363,-0.1361,-0.1359,-0.1359,-0.136,-0.1359,-0.1361,-0.1357,-0.1362,-0.1357,-0.136,-0.1359,-0.136,-0.1359,-0.1359,-0.1363,-0.1356,-0.1345,-0.1344,-0.1359,-0.1359,-0.1359,0,-0.1364,-0.1361,-0.1357,-0.1356,-0.1357,-0.1355,-0.1355,-0.1355,-0.1354,-0.1353,-0.1352,-0.1351,-0.135,-0.1349,-0.135,-0.1353,-0.1346,-0.135,-0.1346,-0.1346,-0.1344,-0.1344,-0.1333,-0.1344,-0.1344,-0.1344,-0.1344,0,-0.1353,-0.1349,-0.1353,-0.135,-0.1346,-0.1349,-0.1344,-0.1345,-0.1345,-0.1343,-0.1346,-0.1344,-0.1347,-0.1345,-0.1346,-0.1343,-0.1342,-0.1343,-0.1343,-0.1342,-0.1342,-0.1341,-0.1342,-0.1344,-0.1344,-0.1344,-0.1344,0,-0.1341,-0.1344,-0.134,-0.1341,-0.1341,-0.1338,-0.1339,-0.1337,-0.1338,-0.1336,-0.1335,-0.1337,-0.1335,-0.1337,-0.1335,-0.1336,-0.1331,-0.1332,-0.1331,-0.1332,-0.1328,-0.1328,-0.1316,-0.1314,-0.1326,-0.1326,-0.1326,0,-0.1334,-0.1331,-0.1333,-0.1332,-0.1332,-0.133,-0.1329,-0.1332,-0.1331,-0.1331,-0.1329,-0.1328,-0.1327,-0.1324,-0.1325,-0.1324,-0.1325,-0.132,-0.1324,-0.1324,-0.1325,-0.1325,-0.1325,-0.1319,-0.1319,-0.1319,-0.1319,0,-0.1321,-0.1323,-0.1322,-0.1321,-0.132,-0.132,-0.132,-0.1319,-0.1322,-0.132,-0.1319,-0.1318,-0.1317,-0.1315,-0.1315,-0.1315,-0.1317,-0.1318,-0.1317,-0.1316,-0.1316,-0.1316,-0.1329,-0.1318,-0.1318,-0.1318,-0.1318,-0.1318,-0.1312,-0.131,-0.1311,-0.1309,-0.131,-0.131,-0.1308,-0.131,-0.1308,-0.1308,-0.131,-0.1308,-0.1308,-0.1308,-0.1308,-0.1306,-0.1308,-0.1307,-0.1306,-0.1306,-0.1306,-0.1316,-0.1306,-0.1306,-0.1306,-0.1306,-0.1306,0,-0.1299,-0.13,-0.1299,-0.1299,-0.1298,-0.1302,-0.1302,-0.1301,-0.1299,-0.13,-0.1299,-0.1298,-0.1296,-0.1298,-0.1297,-0.1296,-0.1297,-0.1296,-0.1296,-0.1296,-0.1304,-0.1305,-0.1295,-0.1295,-0.1295,-0.1295,-0.1295,-0.1295,-0.1293,-0.1289,-0.1291,-0.1288,-0.129,-0.1288,-0.1288,-0.1288,-0.1289,-0.1287,-0.1286,-0.1288,-0.1289,-0.1288,-0.1287,-0.1288,-0.1288,-0.1286,-0.1287,-0.1294,-0.1295,-0.1296,-0.1297,-0.1286,-0.1286,-0.1279,-0.1279,-0.1278]}]]